Location: Dompnac
(44.5644°N, 4.1026°E)
Time: 03:40:46
(UTC+00:00)

Cosmos 2082 Rocket - Pass Details

Date: 26 June 2021
Orbit: 832 x 855 km, 71.0° (Epoch: 03 August)

Event Time Altitude Azimuth Distance (km) Brightness Sun altitude
Exits shadow 01:38:44 - 151° (SSE) 2,490 4.3 -17.4°
Reaches altitude 10° 01:38:56 10° 150° (SSE) 2,433 4.3 -17.4°
Maximum altitude 01:43:06 22° 101° (E) 1,744 4.0 -17.0°
Drops below altitude 10° 01:47:17 10° 52° (NE) 2,450 5.7 -16.7°
Sets 01:50:14 0° 38° (NE) 3,392 7.1 -16.4°
